Regional Weather Roundup
Issued by NWS

Home | Current Version | Previous Version | Graphics & Text | Print | Product List | Glossary On
Versions: 1 2 3 4 5 6 7 8 9 10 11 12 13 14 15 16 17 18 19 20 21 22 23 24 25 26 27 28 29 30 31 32 33 34 35 36 37 38 39 40 41 42 43 44 45 46 47 48 49 50
000
ASUS43 KMPX 250101
RWRMN
WEATHER ROUNDUP FOR MINNESOTA
NATIONAL WEATHER SERVICE TWIN CITIES/CHANHASSEN MN
800 PM CDT WED MAY 24 2017


NOTE: "FAIR" INDICATES FEW OR NO CLOUDS BELOW 12,000 FEET WITH NO
SIGNIFICANT WEATHER AND/OR OBSTRUCTIONS TO VISIBILITY. N/A MEANS
CURRENT SKY AND/OR WEATHER CONDITIONS ARE NOT AVAILABLE.

MNZ060>063-068>070-250200-
   Twin Cities Metro

CITY           SKY/WX    TMP DP  RH WIND       PRES   REMARKS
TWIN CITIES    CLOUDY    60  44  55 E8        29.70S
ST PAUL        CLOUDY    59  46  62 NE6       29.70F
CRYSTAL        CLOUDY    59  42  53 E6        29.69S
BLAINE         CLOUDY    61  45  55 NE3       29.70S
LAKEVILLE      CLOUDY    57  48  72 NE6       29.70S
EDEN PRAIRIE   CLOUDY    60  45  57 E6        29.69R
SOUTH ST PAUL  CLOUDY    60  45  59 CALM      29.70S
LAKE ELMO      CLOUDY    59  46  63 CALM      29.71S
$$
MNZ001>005-007-008-013>017-022>024-027-028-250200-
   Northwest Minnesota

CITY           SKY/WX    TMP DP  RH WIND       PRES   REMARKS
BEMIDJI        CLOUDY    59  41  51 SE16      29.69S
HALLOCK        MOSUNNY   66  36  32 SE20      29.58F
ROSEAU         CLEAR     64  41  42 S15       29.64S
WARROAD        CLEAR     64  43  45 S15       29.66R
CROOKSTON      CLEAR     63  41  45 S17       29.63S
FOSSTON        MOCLDY    59  41  51 E9        29.67S
DETROIT LAKES  MOCLDY    57  41  54 SE13      29.68S
MOORHEAD       CLOUDY    61  43  51 S17       29.65R
PARK RAPIDS    LGT RAIN  60  39  45 SE10      29.69R
MAHNOMEN       CLOUDY    60  41  50 S7G17     29.67R
$$
MNZ006-009>011-018-025>026-250200-
   North Central Minnesota

CITY           SKY/WX    TMP DP  RH WIND       PRES   REMARKS
BAUDETTE       CLEAR     63  38  39 S13       29.67S
FLAG ISLAND    CLEAR     64  43  45 SE5       29.65S
INTL FALLS     CLEAR     62  38  40 SE8       29.70S
WASKISH        PTCLDY    63  43  48 SE13G18   29.69S
BIG FORK       CLEAR     61  39  44 SE5       29.72R
LONGVILLE      CLEAR     57  39  51 SE6       29.71R
GRAND RAPIDS   CLEAR     56  40  55 SE7       29.74R
CRANE LAKE     CLEAR     63  37  39 S3        29.74S
ORR            PTCLDY    59  37  44 CALM      29.70S
COOK           CLEAR     61  37  41 SE6       29.73S
WALKER         CLOUDY    56  42  59 CALM      29.70R
$$
MNZ012-019>021-037-250200-
   Northeast Minnesota

CITY           SKY/WX    TMP DP  RH WIND       PRES   REMARKS
DULUTH         PTCLDY    52  42  69 E10       29.74F
ELY            CLEAR     57  36  44 SE10      29.75R
HIBBING        CLEAR     55  39  54 SE10      29.73S
EVELETH        CLEAR     58  30  35 SE8       29.75S
DULUTH HARBOR  PTCLDY    46  43  87 E13       29.76F
TWO HARBORS    CLEAR     54  45  71 E8        29.75S
SILVER BAY     CLEAR     48  43  81 E6        29.76S
GRAND MARAIS     N/A     48  41  76 CALM      29.77F
G MARAIS ARPRT CLEAR     54  32  43 NE9       29.78F
$$
MNZ029>031-032-039>041-046>048-054>057-064-250200-
   West Central Minnesota

CITY           SKY/WX    TMP DP  RH WIND       PRES   REMARKS
FERGUS FALLS   CLOUDY    57  45  62 S13       29.65F
WHEATON        CLOUDY    59  43  55 SE16      29.66F
MORRIS         CLOUDY    57  46  67 SE9       29.67F
ALEXANDRIA     CLOUDY    56  43  61 SE8       29.70S
ELBOW LAKE     CLOUDY    56  43  61 E9        29.68S
WADENA         MOCLDY    57  43  58 S8        29.69R
GLENWOOD       CLOUDY    55  45  67 E9        29.70S
APPLETON       CLOUDY    61  43  51 SE7       29.67F
BENSON         CLOUDY    59  43  55 SE7       29.69F
ORTONVILLE     CLOUDY    59  46  63 SE8       29.66S
MADISON        CLOUDY    61  46  59 SE8       29.67F
WILLMAR        CLOUDY    59  45  58 E8        29.70S
$$
MNZ033>034-036-042>043-049>051-058-059-250200-
   Central Minnesota

CITY           SKY/WX    TMP DP  RH WIND       PRES   REMARKS
ST CLOUD       CLOUDY    57  45  64 E3        29.70S
SAUK CENTRE    CLOUDY    56  42  59 SE6       29.70S
PAYNESVILLE    CLOUDY    57  41  55 E5        29.71F
AITKIN         PTCLDY    55  43  62 CALM      29.71R
PINE RIVER     MOCLDY    57  43  58 SE9       29.74S
BRAINERD       CLOUDY    56  43  61 SE6       29.71S
STAPLES        CLOUDY    57  41  54 SE3       29.70S
LONG PRAIRIE   CLOUDY    55  43  62 E3        29.71S
LITTLE FALLS   CLOUDY    55  41  58 SE3       29.71S
LITCHFIELD     CLOUDY    57  46  67 E3        29.71S
BUFFALO        CLOUDY    60  44  55 E6        29.71S
MAPLE LAKE     PTCLDY    58  46  66 E3        29.71S
HUTCHINSON     CLOUDY    58  46  63 E6        29.71S
$$
MNZ037-044-045-052-053-250200-
   East Central Minnesota

CITY           SKY/WX    TMP DP  RH WIND       PRES   REMARKS
PRINCETON      CLOUDY    61  45  55 E3        29.70F
MORA           CLOUDY    55  43  62 E3        29.73S
CAMBRIDGE      CLOUDY    61  45  55 CALM      29.69S
RUSH CITY      CLOUDY    58  44  59 CALM      29.71S
MOOSE LAKE     CLOUDY    54  41  62 NE5       29.71S
HINCKLEY       CLOUDY    57  45  62 NE5       29.72S
CLOQUET        CLEAR     52  39  62 E10       29.74S
MCGREGOR       PTCLDY    55  43  62 E6        29.73R
$$
MNZ071>073-080-081-089-090-097-098-250200-
   Southwest Minnesota

CITY           SKY/WX    TMP DP  RH WIND       PRES   REMARKS
MONTEVIDEO     CLOUDY    57  45  62 S5        29.68F
CANBY          CLOUDY    59  43  55 CALM      29.68F
MARSHALL       CLOUDY    58  46  64 SE8       29.69S
REDWOOD FALLS  MOCLDY    59  44  57 E5        29.68F
OLIVIA         CLOUDY    59  45  58 E9        29.69S
PIPESTONE      MOCLDY    59  39  47 SE6       29.67F
WINDOM         CLOUDY    57  45  62 CALM      29.70S
WORTHINGTON    MOCLDY    56  46  69 E8        29.69F
JACKSON        CLOUDY    55  46  71 CALM      29.70S
TRACY          CLOUDY    58  48  68 SE6       29.69S
SLAYTON        CLOUDY    56  45  64 E6        29.70S
$$
MNZ065>067-074>077-082>085-091>093-250200-
   South Central Minnesota

CITY           SKY/WX    TMP DP  RH WIND       PRES   REMARKS
MANKATO          N/A     58  45  62 NE5       29.70S
NEW ULM        PTCLDY    57  46  67 E6        29.70R
ST JAMES       CLEAR     59  43  55 CALM      29.70S
FAIRMONT       CLEAR     60  47  61 E7        29.69S
GLENCOE        PTCLDY    59  48  66 CALM      29.69S
FARIBAULT      CLOUDY    59  48  67 N3        29.70S
OWATONNA       CLOUDY    57  46  67 CALM      29.70S
WASECA         CLOUDY    55  46  71 N6        29.71S
ALBERT LEA     CLOUDY    59  48  67 N5        29.69S
$$
MNZ078>079-086>088-094>096-250200-
   Southeast Minnesota

CITY           SKY/WX    TMP DP  RH WIND       PRES   REMARKS
ROCHESTER      CLOUDY    57  48  72 N6        29.70S
RED WING       CLOUDY    61  45  55 CALM      29.69S
STANTON        CLOUDY    60  47  62 NE3       29.69S
DODGE CENTER   CLOUDY    57  46  67 NE7       29.70R
WINONA         PTCLDY    59  48  67 E5        29.69S
AUSTIN         CLOUDY    57  48  72 CALM      29.68S
PRESTON        CLOUDY    55  49  78 NE5       29.69R
$$
ABBREVIATIONS USED IN REMARKS
   TC - TEMPERATURES IN CELSIUS
  WCI - WIND CHILL INDEX
   HX - HEAT INDEX
  VSB - VISIBILITY
$$




USA.gov is the U.S. government's official web portal to all federal, state and local government web resources and services.